[[{"header":{"parameterUnit":"m.s-1","parameterCategory":1,"la1":30.2991,"la2":30.254,"lo1":-89.0895,"lo2":-89.0444,"dy":0.0017,"dx":0.0017,"nx":28,"ny":28,"refTime":"2024-03-18T09:00:00:Z","depth":0,"parameterNumber":2,"parameterNumberName":"U-component_of_WINDS"},"data":[0,0,0,0,0,0,0,0,0,0,0,0,0,0,0,0,0,0,0,0,0,0,0,0,0,0,0,0,0,0,0,0,0,0,0,0,0,0,0,0,0,0,0,0,0,0,0,0,0,0,0,0,0,0,0,0,0,0,-0.9966,-0.9966,0,-0.9924,-0.9924,-0.9923,-0.9843,-0.9842,-0.984,-0.9839,-0.9798,-0.9799,-0.9799,0,0,0,0,0,0,0,0,0,0,0,0,0,-0.998,-0.9981,-0.9966,-0.9966,-0.9965,-0.9924,-0.9924,-0.9923,-0.9844,-0.9842,-0.984,-0.9838,-0.9798,-0.9799,-0.9799,0,0,0,0,0,0,0,0,0,0,0,0,0,-0.996,-0.9981,-0.9966,-0.9921,-0.9916,-0.9925,-0.9924,-0.9923,-0.9844,-0.9842,-0.9839,-0.9837,-0.9798,-0.9799,-0.9799,-0.985,0,0,-0.9801,-0.9801,0,0,0,0,0,0,0,0,-0.9961,-0.996,-0.9928,-0.9924,-0.9919,-0.9887,-0.9914,-0.9899,-0.9845,-0.9871,-0.9839,-0.9836,-0.983,-0.9828,-0.9825,-0.9848,-0.9846,-0.9801,-0.9801,-0.9802,-0.9802,0,0,0,0,0,0,0,-0.9963,-0.9961,-0.995,-0.9927,-0.9922,-0.9903,-0.9897,-0.9911,-0.9864,-0.9869,-0.9863,-0.9859,-0.9827,-0.9825,-0.9823,-0.9846,-0.9801,-0.9801,-0.9802,-0.9802,-0.991,-0.9912,0,0,0,0,0,0,-0.9971,-0.9963,-0.9951,-0.9948,-0.9935,-0.9905,-0.9898,-0.9899,-0.9864,-0.9856,-0.9861,-0.9855,-0.9825,-0.9823,-0.9822,-0.988,-0.9802,-0.9802,-0.9802,-0.9907,-0.991,-0.9913,0,0,0,0,0,0,-0.9971,-0.997,-0.9953,-0.9954,-0.995,-0.9907,-0.9908,-0.99,-0.9897,-0.9858,-0.985,-0.9867,-0.9823,-0.9821,-0.9844,-0.9877,-0.9802,-0.9803,-0.9904,-0.9908,-0.9911,-0.9996,0,0,0,0,0,0,-0.9972,-0.9971,-0.9989,-0.9955,-0.9951,-0.9975,-0.991,-0.9901,-0.9898,-0.9891,-0.9861,-0.9854,-0.9821,-0.9843,-0.9844,-0.9877,-0.9803,-0.9901,-0.9906,-0.991,-0.999,-1.0002,-1.0013,0,0,0,0,0,-0.9973,-1.0015,-0.999,-0.9989,-0.9972,-0.9977,-0.9974,-0.9934,-0.9901,-0.992,-0.9895,-0.9855,-0.9873,-0.9846,-0.9847,-0.988,-0.9899,-0.9904,-0.991,-0.9985,-1.0,-1.0012,0,0,0,0,0,0,-1.0055,-1.001,-0.9982,-1.0014,-1.0,-0.9963,-0.9985,-0.9951,-0.9946,-0.9939,-0.989,-0.9885,-0.9914,-0.9899,-0.987,-0.9928,-0.988,-0.9886,-0.9937,-0.9951,-0.9962,-0.9965,-0.9804,0,0,0,0,0,-1.0077,-1.0083,-1.0044,-1.0076,-1.007,-1.0029,-1.003,-1.0,-0.9983,-0.9977,-0.9954,-0.994,-0.9943,-0.9946,-0.9946,-0.9987,-0.9981,-1.001,-1.0022,-1.0031,-1.0037,-1.006,-1.0073,-0.9931,-0.9931,-0.9931,0,0,-1.0122,-1.0098,-1.0105,-1.0092,-1.0077,-1.0087,-1.0025,-1.0037,-1.0044,-0.9979,-1.0,-0.9982,-0.9964,-0.9996,-1.001,-0.9985,-1.0075,-1.0038,-1.0046,-1.0047,-1.0067,-1.0081,-1.0093,-0.9935,-0.9934,-0.9934,0,0,-1.0209,-1.0191,-1.0217,-1.0203,-1.0182,-1.0154,-1.0161,-1.0129,-1.0115,-1.0134,-1.0087,-1.0094,-1.01,-1.0089,-1.0084,-1.0168,-1.0133,-1.017,-1.0229,-1.0252,-1.0263,-1.0273,-1.0305,-1.0316,-1.0176,-1.0176,-1.0176,0,-1.0269,-1.028,-1.0234,-1.025,-1.0246,-1.0187,-1.0214,-1.0203,-1.0184,-1.0183,-1.0155,-1.0161,-1.0144,-1.0174,-1.0195,-1.0192,-1.0199,-1.0173,-1.0265,-1.0274,-1.0283,-1.0312,-1.0324,-1.0181,-1.018,-1.018,-1.0179,0,-1.0354,-1.0363,-1.0386,-1.0368,-1.0367,-1.0388,-1.0347,-1.0351,-1.0321,-1.0297,-1.0319,-1.0297,-1.0292,-1.0297,-1.0268,-1.0323,-1.0309,-1.0274,-1.0225,-1.0302,-1.0329,-1.034,-1.0188,-1.0186,-1.0184,-1.0183,0,0,-1.0493,-1.045,-1.0459,-1.0451,-1.0423,-1.0429,-1.0448,-1.0443,-1.0448,-1.0436,-1.0452,-1.0458,-1.0425,-1.042,-1.039,-1.0409,-1.048,-1.0372,-1.0371,-1.0394,-1.0542,-1.057,-1.0584,-1.0455,-1.0457,-1.0459,-1.0544,0,-1.0576,-1.0604,-1.0565,-1.0603,-1.0611,-1.0556,-1.0572,-1.0558,-1.0536,-1.0541,-1.0517,-1.0523,-1.0478,-1.0475,-1.0492,-1.0468,-1.0509,-1.0461,-1.0471,-1.0472,-1.0479,-1.0597,-1.0627,-1.0708,-1.0554,-1.0556,-1.0557,0,-1.0676,-1.0669,-1.0708,-1.0679,-1.0681,-1.0696,-1.0689,-1.0693,-1.0676,-1.0659,-1.0654,-1.0618,-1.0635,-1.0587,-1.0611,-1.058,-1.0581,-1.057,-1.0573,-1.0573,-1.0521,-1.0603,-1.0733,-1.0746,-1.0573,-1.0572,-1.0571,0,-1.0776,-1.0776,-1.0799,-1.0794,-1.076,-1.0772,-1.0759,-1.0739,-1.0739,-1.0733,-1.0732,-1.0729,-1.0727,-1.0726,-1.069,-1.0657,-1.072,-1.0668,-1.0708,-1.0709,-1.0724,-1.0724,-1.0858,-1.0723,-1.0723,-1.0722,-1.0722,0,-1.0873,-1.09,-1.0844,-1.0859,-1.0887,-1.0841,-1.0871,-1.0852,-1.0836,-1.0847,-1.0798,-1.081,-1.0761,-1.0768,-1.074,-1.0766,-1.0765,-1.0753,-1.0746,-1.0759,-1.0761,-1.0761,-1.0755,-1.0726,-1.0725,-1.0724,-1.0724,0,-1.0989,-1.0953,-1.0975,-1.0941,-1.0933,-1.0956,-1.0928,-1.0941,-1.0915,-1.093,-1.0931,-1.0893,-1.0898,-1.0862,-1.0861,-1.0842,-1.0883,-1.0865,-1.0889,-1.0884,-1.0926,-1.0924,-1.1066,-1.1083,-1.0936,-1.0937,-1.0938,0,-1.1055,-1.1074,-1.1042,-1.1046,-1.1035,-1.1041,-1.104,-1.0996,-1.0998,-1.0981,-1.0996,-1.0998,-1.0997,-1.1009,-1.0982,-1.0981,-1.0964,-1.1014,-1.0964,-1.0976,-1.0967,-1.0967,-1.097,-1.1025,-1.1027,-1.1028,-1.103,0,-1.1175,-1.1156,-1.1157,-1.1152,-1.1153,-1.1147,-1.1137,-1.1143,-1.1096,-1.11,-1.1105,-1.1105,-1.1104,-1.1107,-1.1101,-1.1088,-1.1052,-1.1045,-1.1055,-1.1069,-1.1083,-1.1078,-1.0919,-1.1043,-1.1041,-1.104,-1.104,-1.1039,-1.1269,-1.1284,-1.1265,-1.1267,-1.1256,-1.1248,-1.1259,-1.1236,-1.1239,-1.1234,-1.1208,-1.1218,-1.1202,-1.119,-1.1181,-1.119,-1.1166,-1.1179,-1.1183,-1.1187,-1.1196,-1.108,-1.1188,-1.1188,-1.1187,-1.1187,-1.1187,0,-1.1389,-1.1374,-1.1376,-1.1365,-1.1368,-1.1332,-1.132,-1.1325,-1.1335,-1.1322,-1.1322,-1.1329,-1.1331,-1.1304,-1.1304,-1.1316,-1.13,-1.1318,-1.1317,-1.1315,-1.1216,-1.1209,-1.1331,-1.1331,-1.1331,-1.1331,-1.1331,-1.1331,-1.1452,-1.1476,-1.1455,-1.1473,-1.1457,-1.1467,-1.1464,-1.1457,-1.1447,-1.1456,-1.1458,-1.144,-1.1422,-1.142,-1.1422,-1.1413,-1.1417,-1.1441,-1.1428,-1.1336,-1.1322,-1.1309,-1.1302,-1.1441,-1.1442,-1.1526,-1.1527,-1.1528]},{"header":{"parameterUnit":"m.s-1","parameterCategory":1,"la1":30.2991,"la2":30.254,"lo1":-89.0895,"lo2":-89.0444,"dy":0.0017,"dx":0.0017,"nx":28,"ny":28,"refTime":"2024-03-18T09:00:00:Z","depth":0,"parameterNumber":3,"parameterNumberName":"V-component_of_WINDS"},"data":[0,0,0,0,0,0,0,0,0,0,0,0,0,0,0,0,0,0,0,0,0,0,0,0,0,0,0,0,0,0,0,0,0,0,0,0,0,0,0,0,0,0,0,0,0,0,0,0,0,0,0,0,0,0,0,0,0,0,-0.6157,-0.6157,0,-0.6179,-0.6179,-0.618,-0.6141,-0.6139,-0.6138,-0.6137,-0.6161,-0.6163,-0.6164,0,0,0,0,0,0,0,0,0,0,0,0,0,-0.6081,-0.6083,-0.6157,-0.6157,-0.6157,-0.6179,-0.6179,-0.618,-0.6141,-0.6139,-0.6138,-0.6136,-0.616,-0.6162,-0.6165,0,0,0,0,0,0,0,0,0,0,0,0,0,-0.611,-0.6084,-0.6157,-0.614,-0.6139,-0.6179,-0.6179,-0.618,-0.6141,-0.6139,-0.6137,-0.6135,-0.6159,-0.6162,-0.6165,-0.6222,0,0,-0.6173,-0.6175,0,0,0,0,0,0,0,0,-0.6108,-0.6113,-0.6142,-0.6142,-0.614,-0.6155,-0.6162,-0.6194,-0.6142,-0.614,-0.6137,-0.6134,-0.616,-0.6163,-0.6172,-0.6223,-0.6224,-0.6174,-0.6175,-0.6177,-0.6177,0,0,0,0,0,0,0,-0.6107,-0.6112,-0.6165,-0.6143,-0.6142,-0.6132,-0.6134,-0.6167,-0.6161,-0.614,-0.6138,-0.6141,-0.6159,-0.6169,-0.6172,-0.6224,-0.6174,-0.6176,-0.6178,-0.6179,-0.6325,-0.6327,0,0,0,0,0,0,-0.6106,-0.611,-0.6165,-0.6166,-0.6119,-0.6135,-0.6137,-0.6152,-0.6161,-0.616,-0.6142,-0.6139,-0.6165,-0.6169,-0.6173,-0.6241,-0.6177,-0.6179,-0.6181,-0.6323,-0.6325,-0.6328,0,0,0,0,0,0,-0.6105,-0.6112,-0.6164,-0.6137,-0.6143,-0.6139,-0.6156,-0.6154,-0.6163,-0.6162,-0.6161,-0.6153,-0.6164,-0.6169,-0.621,-0.6242,-0.6181,-0.6183,-0.632,-0.6323,-0.6326,-0.6378,0,0,0,0,0,0,-0.6103,-0.6111,-0.6133,-0.6138,-0.6145,-0.6201,-0.6158,-0.6156,-0.6168,-0.6164,-0.6172,-0.6172,-0.6163,-0.6206,-0.6213,-0.6244,-0.6185,-0.6317,-0.6322,-0.6325,-0.6374,-0.6383,-0.6391,0,0,0,0,0,-0.61,-0.6146,-0.6134,-0.6141,-0.6171,-0.6203,-0.6207,-0.6195,-0.6171,-0.6193,-0.6192,-0.6171,-0.6236,-0.6211,-0.6218,-0.6251,-0.6315,-0.632,-0.6325,-0.637,-0.6381,-0.6391,0,0,0,0,0,0,-0.6145,-0.6147,-0.6133,-0.6182,-0.6192,-0.6196,-0.6223,-0.6207,-0.6225,-0.622,-0.6205,-0.6207,-0.6252,-0.6255,-0.6226,-0.6307,-0.6272,-0.6279,-0.6304,-0.6314,-0.6322,-0.6322,-0.6188,0,0,0,0,0,-0.616,-0.6185,-0.6185,-0.6229,-0.6234,-0.6228,-0.6241,-0.6231,-0.6241,-0.6246,-0.6248,-0.6259,-0.6282,-0.6298,-0.6319,-0.6373,-0.6376,-0.6399,-0.6408,-0.6415,-0.6421,-0.6452,-0.6463,-0.6344,-0.6344,-0.6344,0,0,-0.6192,-0.6197,-0.6213,-0.6238,-0.6244,-0.6271,-0.6232,-0.6262,-0.6282,-0.625,-0.629,-0.6292,-0.6304,-0.6352,-0.6374,-0.6356,-0.6454,-0.6421,-0.6427,-0.643,-0.6458,-0.6469,-0.6479,-0.6347,-0.6347,-0.6346,0,0,-0.6266,-0.627,-0.6308,-0.6315,-0.6326,-0.6322,-0.6331,-0.6337,-0.6337,-0.6376,-0.6354,-0.6377,-0.6417,-0.6427,-0.6437,-0.6513,-0.6496,-0.652,-0.6566,-0.6596,-0.6605,-0.6613,-0.6643,-0.6653,-0.6527,-0.6527,-0.6527,0,-0.6305,-0.6344,-0.6329,-0.6361,-0.6373,-0.6345,-0.6383,-0.6391,-0.6409,-0.6418,-0.6398,-0.6448,-0.6453,-0.6504,-0.6523,-0.6532,-0.6542,-0.6521,-0.6605,-0.6613,-0.662,-0.6648,-0.6659,-0.653,-0.6529,-0.6529,-0.6529,0,-0.6392,-0.642,-0.6448,-0.6466,-0.6481,-0.6516,-0.6507,-0.6524,-0.6512,-0.651,-0.6551,-0.6557,-0.6579,-0.659,-0.6579,-0.664,-0.6629,-0.6607,-0.6572,-0.6635,-0.6661,-0.6671,-0.6534,-0.6533,-0.6532,-0.6531,0,0,-0.6495,-0.6504,-0.6515,-0.6523,-0.6533,-0.6555,-0.6588,-0.661,-0.6625,-0.6638,-0.6667,-0.6701,-0.6681,-0.6692,-0.6682,-0.6708,-0.6771,-0.6683,-0.6683,-0.6701,-0.684,-0.6859,-0.6871,-0.6758,-0.676,-0.6762,-0.684,0,-0.6569,-0.6627,-0.6615,-0.6673,-0.6699,-0.6673,-0.6702,-0.6712,-0.671,-0.6733,-0.6731,-0.6756,-0.6727,-0.6734,-0.6758,-0.6758,-0.6799,-0.6752,-0.6786,-0.6788,-0.6787,-0.6884,-0.6903,-0.6977,-0.685,-0.6852,-0.6853,0,-0.6664,-0.6681,-0.6741,-0.6747,-0.6758,-0.6785,-0.6804,-0.6825,-0.6836,-0.6833,-0.6846,-0.6831,-0.6865,-0.6828,-0.6876,-0.6844,-0.6857,-0.6859,-0.6862,-0.6866,-0.6826,-0.6894,-0.7,-0.7012,-0.6868,-0.6867,-0.6866,0,-0.6736,-0.6773,-0.6814,-0.6821,-0.683,-0.6849,-0.6854,-0.6862,-0.6876,-0.6893,-0.6902,-0.6923,-0.6935,-0.6951,-0.6942,-0.6916,-0.6992,-0.6954,-0.6992,-0.6993,-0.7011,-0.7011,-0.7124,-0.7016,-0.7016,-0.7016,-0.7016,0,-0.6821,-0.6859,-0.6846,-0.6872,-0.6915,-0.69,-0.6942,-0.6944,-0.6952,-0.6978,-0.6955,-0.698,-0.6966,-0.699,-0.6983,-0.7025,-0.7029,-0.7029,-0.7027,-0.7033,-0.7033,-0.7043,-0.7038,-0.7019,-0.7018,-0.7018,-0.7017,0,-0.6909,-0.6902,-0.6945,-0.6949,-0.6951,-0.6983,-0.6987,-0.7011,-0.7007,-0.7041,-0.7047,-0.7043,-0.707,-0.7062,-0.7091,-0.7086,-0.714,-0.713,-0.7137,-0.7135,-0.7174,-0.7172,-0.73,-0.7317,-0.7196,-0.7197,-0.7198,0,-0.6965,-0.6994,-0.7002,-0.7017,-0.7024,-0.7049,-0.7063,-0.705,-0.7066,-0.708,-0.7103,-0.7128,-0.7148,-0.7192,-0.7192,-0.7214,-0.7206,-0.725,-0.721,-0.7215,-0.721,-0.7209,-0.7213,-0.7258,-0.726,-0.7261,-0.7262,0,-0.7067,-0.7061,-0.7083,-0.7103,-0.7121,-0.7137,-0.715,-0.7164,-0.7152,-0.7171,-0.7198,-0.7213,-0.7243,-0.7269,-0.729,-0.7294,-0.7277,-0.7274,-0.7284,-0.7291,-0.7295,-0.7296,-0.7161,-0.7272,-0.7271,-0.727,-0.7269,-0.7269,-0.7142,-0.7167,-0.7176,-0.7201,-0.721,-0.7223,-0.7247,-0.7246,-0.7269,-0.7292,-0.7282,-0.7314,-0.7325,-0.735,-0.7358,-0.7383,-0.7367,-0.7382,-0.7386,-0.739,-0.7396,-0.7289,-0.7387,-0.7386,-0.7386,-0.7386,-0.7386,0,-0.7244,-0.7248,-0.7271,-0.7291,-0.7311,-0.7291,-0.7305,-0.7323,-0.7352,-0.7363,-0.7382,-0.7415,-0.7439,-0.7441,-0.7464,-0.7484,-0.7477,-0.7491,-0.7491,-0.7493,-0.7408,-0.7398,-0.7497,-0.7497,-0.7497,-0.7497,-0.7497,-0.7497,-0.7299,-0.7341,-0.7337,-0.7384,-0.7388,-0.7419,-0.7429,-0.7442,-0.7451,-0.7487,-0.7508,-0.7508,-0.7516,-0.754,-0.7562,-0.7561,-0.7572,-0.759,-0.7587,-0.7509,-0.7498,-0.7488,-0.7478,-0.7592,-0.7592,-0.7669,-0.767,-0.7671]}]]